DateTime,DeltaTime,Roll,TargetAngle,Position,Power
2022-06-03 10:47:18.981,0,-0.61,-8.5,10,80.41
2022-06-03 10:47:19.096,0.115006417036057,-0.37,-3.64,8,45.31
2022-06-03 10:47:19.209,0.228001177310944,-0.19,-3.27,5,38.47
2022-06-03 10:47:19.324,0.343007594347,-0.29,-4.81,1,35.32
2022-06-03 10:47:19.440,0.45899972319603,-0.49,-6,0,24.07
2022-06-03 10:47:19.550,0.56900717318058,-0.51,-5.31,0,19.96
2022-06-03 10:47:19.664,0.683007761836052,-0.44,-4.65,2,19.33
2022-06-03 10:47:19.779,0.798004120588303,-0.28,-3.63,6,25.58
2022-06-03 10:47:19.893,0.912004709243774,0.16,-0.87,8,30.95
2022-06-03 10:47:20.008,1.02700106799603,-0.31,-6.54,10,68.34
2022-06-03 10:47:20.123,1.14200748503208,-0.11,-2.84,9,45.16
2022-06-03 10:47:20.238,1.25700384378433,-0.0399999999999999,-3.2,5,44.18
2022-06-03 10:47:20.352,1.3710044324398,-0.15,-4.38,2,32.06
2022-06-03 10:47:20.467,1.48600079119205,-0.31,-5.13,0,25.33
2022-06-03 10:47:20.582,1.60100720822811,-0.32,-4.56,0,16.09
2022-06-03 10:47:20.697,1.71600356698036,-0.2,-3.58,2,14.99
2022-06-03 10:47:20.811,1.83000415563583,-0.12,-3.4,5,25.7
2022-06-03 10:47:20.926,1.94500051438808,0.23,-0.95,8,26.57
2022-06-03 10:47:21.040,2.05900110304356,0.38,-1.26,10,42.93
2022-06-03 10:47:21.155,2.17400752007961,0.22,-3.2,10,59.17
2022-06-03 10:47:21.269,2.28799805045128,0.05,-3.86,7,52.04
2022-06-03 10:47:21.380,2.39900127053261,0.17,-2.2,3,27.84
2022-06-03 10:47:21.495,2.51400768756866,0.05,-3.7,1,22.28
2022-06-03 10:47:21.609,2.62799821794033,0.03,-3.32,0,14.3
2022-06-03 10:47:21.724,2.74300463497639,0.21,-1.77,3,5.05
2022-06-03 10:47:21.839,2.85800099372864,0.2,-2.65,3,27.95
2022-06-03 10:47:21.954,2.97300741076469,-0.07,-4.73,7,33.77
2022-06-03 10:47:22.068,3.08700799942017,0.2,-1.43,9,35.28
2022-06-03 10:47:22.182,3.20099852979183,0.0800000000000001,-3.56,9,55.81
2022-06-03 10:47:22.297,3.31600494682789,0.0600000000000001,-3.2,7,44.57
2022-06-03 10:47:22.412,3.43100130558014,0.18,-2.13,4,30.78
2022-06-03 10:47:22.527,3.5460077226162,0.01,-4.02,1,30.09
2022-06-03 10:47:22.642,3.66100408136845,-0.0499999999999999,-3.81,0,16.23
2022-06-03 10:47:22.756,3.77500467002392,0.02,-2.9,0,11.33
2022-06-03 10:47:22.871,3.89000102877617,0.0600000000000001,-2.92,3,14.17
2022-06-03 10:47:22.986,4.00500744581223,0.14,-2.51,6,27.42
2022-06-03 10:47:23.101,4.12000380456448,0.32,-1.3,9,33.47
2022-06-03 10:47:23.210,4.22900542616844,0.33,-2.05,9,50.53
2022-06-03 10:47:23.325,4.34400178492069,0.37,-1.84,9,39.76
2022-06-03 10:47:23.441,4.46000397205353,0.21,-3.23,5,47.95
2022-06-03 10:47:23.555,4.574004560709,0.34,-1.54,3,16.69
2022-06-03 10:47:23.669,4.68800514936447,0.28,-2.58,0,19.92
2022-06-03 10:47:23.784,4.80300150811672,0.2,-2.93,0,8.47
2022-06-03 10:47:23.899,4.91800792515278,0.32,-1.58,3,5.43
2022-06-03 10:47:24.014,5.03300428390503,0.22,-2.99,6,29.4
2022-06-03 10:47:24.129,5.14800064265728,0.37,-1.27,8,30.58
2022-06-03 10:47:24.243,5.26200123131275,-0.01,-5.01,10,58.31
2022-06-03 10:47:24.358,5.37700764834881,0.22,-1.54,10,40.68
2022-06-03 10:47:24.473,5.49200400710106,0.23,-2.42,6,48.04
2022-06-03 10:47:24.587,5.60600459575653,0.16,-3.06,3,29.06
2022-06-03 10:47:24.702,5.72100095450878,0.04,-3.69,1,22.42
2022-06-03 10:47:24.816,5.83500154316425,0.02,-3.34,0,14.4
2022-06-03 10:47:24.928,5.94700053334236,0.17,-2.06,1,6.44
2022-06-03 10:47:25.042,6.06100112199783,0.26,-1.98,4,14.24
2022-06-03 10:47:25.156,6.17500171065331,0.02,-4.3,7,39.94
2022-06-03 10:47:25.271,6.28999806940556,0.28,-1.12,9,32.77
2022-06-03 10:47:25.386,6.40500448644161,0.17,-3.18,9,54.09
2022-06-03 10:47:25.500,6.51900507509708,0.15,-2.85,7,43.31
2022-06-03 10:47:25.615,6.63400143384933,0.17,-2.62,4,33.68
2022-06-03 10:47:25.731,6.75000362098217,0,-4.04,1,29.59
2022-06-03 10:47:25.846,6.86499997973442,-0.02,-3.55,0,14.89
2022-06-03 10:47:25.960,6.97900056838989,-0.01,-3.29,0,13.63
2022-06-03 10:47:26.074,7.09300115704536,-0.02,-3.49,3,16.54
2022-06-03 10:47:26.189,7.20800757408142,0.09,-2.52,7,26.79
2022-06-03 10:47:26.303,7.32199810445309,0.34,-1,11,37.04
2022-06-03 10:47:26.418,7.43700452148914,0.57,-0.22,10,50.63
2022-06-03 10:47:26.532,7.55100511014462,-0.16,-7.06,8,70.63
2022-06-03 10:47:26.647,7.66600146889687,0.11,-1.76,5,26.45
2022-06-03 10:47:26.759,7.77800045907497,0.12,-2.84,2,27.31
2022-06-03 10:47:26.873,7.89200104773045,-0.1,-4.64,0,24.57
2022-06-03 10:47:26.987,8.00600163638592,-0.13,-3.98,0,13.42
2022-06-03 10:47:27.102,8.12099799513817,-0.01,-2.79,2,11.34
2022-06-03 10:47:27.216,8.23499858379364,0.05,-2.92,5,23.8
2022-06-03 10:47:27.331,8.3500050008297,0.0600000000000001,-3.06,8,37.15
2022-06-03 10:47:27.446,8.46500135958195,0.15,-2.4,10,45.5
2022-06-03 10:47:27.561,8.580007776618,0.0600000000000001,-3.51,8,53.95
2022-06-03 10:47:27.676,8.69500413537025,0.0600000000000001,-3.11,6,37.85
2022-06-03 10:47:27.790,8.80900472402573,0.1,-2.81,3,30.51
2022-06-03 10:47:27.905,8.92400108277798,-0.01,-3.8,1,24.28
2022-06-03 10:47:28.019,9.03800167143345,-0.03,-3.55,0,16.29
2022-06-03 10:47:28.134,9.1529980301857,0.11,-2.28,1,8.31
2022-06-03 10:47:28.249,9.26800444722176,0.09,-3.13,4,20.72
2022-06-03 10:47:28.363,9.38200503587723,0.3,-1.33,7,24.68
2022-06-03 10:47:28.478,9.49700139462948,0.48,-0.77,9,35.83
2022-06-03 10:47:28.588,9.60699878633022,0.43,-1.94,10,49.2
2022-06-03 10:47:28.703,9.72200520336628,0.0700000000000001,-4.65,7,58.94
2022-06-03 10:47:28.818,9.83700156211853,0.0600000000000001,-3.16,6,31.62
2022-06-03 10:47:28.932,9.951002150774,0.0700000000000001,-3.05,1,32.89
2022-06-03 10:47:29.047,10.0659985095263,-0.07,-4.15,0,15.66
2022-06-03 10:47:29.163,10.1820006966591,-0.0499999999999999,-3.46,0,12.81
2022-06-03 10:47:29.277,10.2960012853146,0.0700000000000001,-2.57,3,10.84
2022-06-03 10:47:29.391,10.41000187397,0.09,-2.87,6,28.77
2022-06-03 10:47:29.506,10.5249982327223,0.53,0.56,8,22.86
2022-06-03 10:47:29.621,10.6400046497583,0.5,-1.61,10,44.76
2022-06-03 10:47:29.735,10.7540052384138,0.42,-2.16,8,52.91
2022-06-03 10:47:29.851,10.8700074255466,0.35,-2.32,5,35.69
2022-06-03 10:47:29.965,10.9840080142021,0.21,-3.18,2,28.31
2022-06-03 10:47:30.080,11.0990043729544,0.1,-3.4,0,17.99
2022-06-03 10:47:30.194,11.2130049616098,0.0700000000000001,-3.26,0,11.39
2022-06-03 10:47:30.309,11.3280013203621,0.27,-1.45,2,5.45
2022-06-03 10:47:30.419,11.4379987120628,0.28,-2.21,5,21.81
2022-06-03 10:47:30.534,11.5530051290989,0.39,-1.4,8,29.48
2022-06-03 10:47:30.648,11.6670057177544,0.49,-1.12,8,40.81
2022-06-03 10:47:30.764,11.7830079048872,0.44,-1.93,9,42.15
2022-06-03 10:47:30.878,11.8969984352589,0.48,-1.36,6,44.12
2022-06-03 10:47:30.993,12.0120048522949,0.45,-1.82,3,31.8
2022-06-03 10:47:31.107,12.1260054409504,0.33,-2.65,3,25.03
2022-06-03 10:47:31.222,12.2410017997026,0.37,-1.81,0,24.14
2022-06-03 10:47:31.337,12.3559981584549,0.41,-1.63,1,9.79
2022-06-03 10:47:31.452,12.471004575491,0.36,-2.2,3,21.97
2022-06-03 10:47:31.566,12.5850051641464,0.34,-2.18,6,30.09
2022-06-03 10:47:31.681,12.7000015228987,0.43,-1.32,8,38.71
2022-06-03 10:47:31.795,12.8140021115541,0.0700000000000001,-4.68,10,63.36
2022-06-03 10:47:31.911,12.930004298687,-0.08,-4.28,7,54.79
2022-06-03 10:47:32.026,13.0450006574392,0.15,-1.73,4,24.94
2022-06-03 10:47:32.136,13.15499804914,0.0700000000000001,-3.48,2,26.76
2022-06-03 10:47:32.251,13.270004466176,-0.0599999999999999,-4.06,1,22.02
2022-06-03 10:47:32.365,13.3840050548315,-0.03,-3.34,1,15.77
2022-06-03 10:47:32.479,13.498005643487,0.0800000000000001,-2.52,2,14.38
2022-06-03 10:47:32.594,13.6130020022392,0.16,-2.37,6,19.98
2022-06-03 10:47:32.709,13.7279983609915,0.03,-3.8,8,46.44
2022-06-03 10:47:32.823,13.8419989496469,0.16,-2.16,10,38
2022-06-03 10:47:32.938,13.957005366683,0.03,-3.78,9,56.56
2022-06-03 10:47:33.053,14.0720017254353,-0.02,-3.66,4,45.27
2022-06-03 10:47:33.167,14.1860023140907,-0.07,-3.81,2,22.49
2022-06-03 10:47:33.282,14.300998672843,-0.22,-4.76,1,24.29
2022-06-03 10:47:33.397,14.416005089879,-0.19,-3.92,0,17.1
2022-06-03 10:47:33.512,14.5310014486313,-0.08,-3.12,1,10.95
2022-06-03 10:47:33.626,14.6450020372868,-0.03,-3.23,6,19.12
2022-06-03 10:47:33.741,14.759998396039,0.29,-0.89,8,31.38
2022-06-03 10:47:33.856,14.8750048130751,0.38,-1.51,9,41.61
2022-06-03 10:47:33.966,14.9850022047758,0.23,-3.12,9,52.13
2022-06-03 10:47:34.081,15.0999985635281,0.27,-2.17,6,39.97
2022-06-03 10:47:34.195,15.2139991521835,0.2,-2.91,3,30.93
2022-06-03 10:47:34.310,15.3290055692196,0.0600000000000001,-3.75,1,23.94
2022-06-03 10:47:34.425,15.4440019279718,0.12,-2.62,0,11.69
2022-06-03 10:47:34.539,15.5580025166273,0.16,-2.59,2,11.01
2022-06-03 10:47:34.655,15.6740047037601,0.16,-2.72,4,23.22
2022-06-03 10:47:34.769,15.7880052924156,0.15,-2.84,7,31.47
2022-06-03 10:47:34.884,15.9030016511679,0.15,-2.76,9,43.94
2022-06-03 10:47:34.999,16.0179980099201,0.14,-2.87,9,51.55
2022-06-03 10:47:35.113,16.1319985985756,-0.39,-7.07,7,64.82
2022-06-03 10:47:35.228,16.2470050156116,-0.24,-3.56,4,31.76
2022-06-03 10:47:35.343,16.3620013743639,-0.32,-4.85,1,31.41
2022-06-03 10:47:35.457,16.4760019630194,-0.48,-5.8,0,24.19
2022-06-03 10:47:35.572,16.5909983217716,-0.46,-4.98,0,18.42
2022-06-03 10:47:35.687,16.7060047388077,-0.45,-4.9,3,20.85
2022-06-03 10:47:35.797,16.8160021305084,-0.32,-3.95,6,31.65
2022-06-03 10:47:35.912,16.9309984892607,0.24,-0.03,9,25
2022-06-03 10:47:36.026,17.0449990779161,-0.03,-4.64,10,64.8
2022-06-03 10:47:36.141,17.1600054949522,0.0800000000000001,-2.57,7,45.02
2022-06-03 10:47:36.256,17.2750018537045,0.18,-2.19,4,29.51
2022-06-03 10:47:36.370,17.3890024423599,0.03,-3.85,2,28.04
2022-06-03 10:47:36.485,17.5039988011122,-0.08,-4.09,0,21.76
2022-06-03 10:47:36.600,17.6190052181482,-0.0499999999999999,-3.44,0,11.33
2022-06-03 10:47:36.714,17.7330058068037,0.11,-2.18,3,8.8
2022-06-03 10:47:36.829,17.848002165556,0.1,-3.04,7,30.02
2022-06-03 10:47:36.943,17.9620027542114,-0.21,-5.45,8,57.57
2022-06-03 10:47:37.059,18.0780049413443,0,-2.41,10,35.77
2022-06-03 10:47:37.174,18.1930013000965,-0.13,-4.41,9,59.39
2022-06-03 10:47:37.288,18.307001888752,-0.14,-3.87,5,45.49
2022-06-03 10:47:37.402,18.4210024774075,-0.09,-3.45,3,25.39
2022-06-03 10:47:37.513,18.5320056974888,-0.24,-4.88,1,29.1
2022-06-03 10:47:37.628,18.647002056241,-0.23,-4.14,0,16.9
2022-06-03 10:47:37.743,18.7619984149933,-0.0499999999999999,-2.73,2,8.88
2022-06-03 10:47:37.857,18.8759990036488,-0.03,-3.37,5,25.5
2022-06-03 10:47:37.972,18.9910054206848,0.19,-1.69,8,29.12
2022-06-03 10:47:38.086,19.1050060093403,0.26,-2.07,10,44.93
2022-06-03 10:47:38.201,19.2200023680925,0.18,-3.03,9,56.21
2022-06-03 10:47:38.316,19.3349987268448,0.15,-2.85,6,42.21
2022-06-03 10:47:38.431,19.4500051438808,0.0600000000000001,-3.51,3,33.14
2022-06-03 10:47:38.545,19.5640057325363,-0.0599999999999999,-4.11,1,25.03
2022-06-03 10:47:38.660,19.6790020912886,0,-3.07,0,13.66
2022-06-03 10:47:38.775,19.7939984500408,0.09,-2.56,0,10.45
2022-06-03 10:47:38.889,19.9079990386963,-0.1,-4.56,4,22.68
2022-06-03 10:47:39.004,20.0230054557323,0,-2.87,7,32.04
2022-06-03 10:47:39.118,20.1370060443878,0.13,-2.32,9,41.88
2022-06-03 10:47:39.233,20.2520024031401,0.28,-1.62,9,46.02
2022-06-03 10:47:39.344,20.3630056232214,-0.22,-6.32,7,62.71
2022-06-03 10:47:39.458,20.4770062118769,-0.17,-3.78,3,33.82
2022-06-03 10:47:39.573,20.5920025706291,-0.17,-3.97,1,21.73
2022-06-03 10:47:39.688,20.7069989293814,-0.24,-4.51,1,20.05
2022-06-03 10:47:39.802,20.8209995180368,-0.21,-3.94,0,19.64
2022-06-03 10:47:39.917,20.9360059350729,-0.15,-3.63,3,14.27
2022-06-03 10:47:40.033,21.0519980639219,-0.12,-3.67,6,31.52
2022-06-03 10:47:40.146,21.1650028824806,0.15,-1.58,9,32.7
2022-06-03 10:47:40.262,21.2810050696135,-0.42,-7.39,10,76.29
2022-06-03 10:47:40.376,21.3950056582689,-0.16,-2.77,8,42.37
2022-06-03 10:47:40.491,21.5100020170212,-0.0399999999999999,-2.99,5,39.4
2022-06-03 10:47:40.605,21.6240026056767,-0.15,-4.32,2,34.41
2022-06-03 10:47:40.720,21.7389989644289,-0.28,-4.95,0,25.56
2022-06-03 10:47:40.835,21.854005381465,-0.33,-4.75,0,18.3
2022-06-03 10:47:40.949,21.9680059701204,-0.17,-3.25,2,14.12
2022-06-03 10:47:41.059,22.0780033618212,-0.11,-3.5,6,27.67
2022-06-03 10:47:41.174,22.1929997205734,-0.03,-3.09,8,43.15
2022-06-03 10:47:41.289,22.3080061376095,0.13,-2.13,10,44.48
2022-06-03 10:47:41.404,22.4230024963617,0.04,-3.59,8,61.38
2022-06-03 10:47:41.519,22.537998855114,-0.09,-4.24,6,43.42
2022-06-03 10:47:41.633,22.6519994437695,-0.09,-3.64,3,33.27
2022-06-03 10:47:41.748,22.7670058608055,-0.2,-4.56,0,27.19
2022-06-03 10:47:41.862,22.881006449461,-0.23,-4.29,0,14.26
2022-06-03 10:47:41.977,22.9960028082132,0.01,-2.27,0,8.83
2022-06-03 10:47:42.092,23.1109991669655,-0.11,-4.26,4,21.64
2022-06-03 10:47:42.207,23.2260055840015,-0.27,-5,7,43.1
2022-06-03 10:47:42.321,23.340006172657,-0.23,-3.99,10,47.68
2022-06-03 10:47:42.436,23.4550025314093,-0.25,-4.39,10,57.57
2022-06-03 10:47:42.551,23.5699988901615,-0.22,-3.97,7,51.01
2022-06-03 10:47:42.665,23.683999478817,-0.26,-4.51,3,39.25
2022-06-03 10:47:42.780,23.799005895853,-0.4,-5.41,1,28.04
2022-06-03 10:47:42.891,23.9099990576506,-0.41,-4.92,0,20.39
2022-06-03 10:47:43.006,24.0250054746866,-0.39,-4.66,0,17.91
2022-06-03 10:47:43.120,24.1390060633421,-0.39,-4.8,3,20.68
2022-06-03 10:47:43.234,24.2530066519976,-0.28,-3.91,7,31.5
2022-06-03 10:47:43.349,24.3680030107498,-0.0499999999999999,-2.5,9,42.32
2022-06-03 10:47:43.464,24.4829993695021,0.29,-0.79,10,41.25
2022-06-03 10:47:43.579,24.5980057865381,-0.24,-6.53,8,75.46
2022-06-03 10:47:43.693,24.7120063751936,-0.12,-3.26,5,34.67
2022-06-03 10:47:43.808,24.8270027339458,0,-2.78,2,25.2
2022-06-03 10:47:43.923,24.9419990926981,-0.07,-3.87,0,20.92
2022-06-03 10:47:44.037,25.0559996813536,-0.1,-3.87,-1,13.93
2022-06-03 10:47:44.153,25.1720018684864,-0.02,-3.03,1,7.72
2022-06-03 10:47:44.267,25.2860024571419,-0.0499999999999999,-3.65,5,23.44
2022-06-03 10:47:44.382,25.4009988158941,0.0800000000000001,-2.46,8,34.48
2022-06-03 10:47:44.497,25.5160052329302,-0.33,-6.38,10,66.09
2022-06-03 10:47:44.612,25.6310015916824,-0.07,-2.41,9,43.23
2022-06-03 10:47:44.722,25.7409989833832,-0.14,-4.15,7,50.63
2022-06-03 10:47:44.836,25.8549995720387,-0.13,-3.74,3,36.51
2022-06-03 10:47:44.951,25.9700059890747,-0.34,-5.54,1,29.63
2022-06-03 10:47:45.065,26.0840065777302,-0.39,-4.96,0,20.37
2022-06-03 10:47:45.181,26.1999987065792,-0.26,-3.71,0,13.06
2022-06-03 10:47:45.295,26.3139992952347,-0.09,-2.97,3,12.63
2022-06-03 10:47:45.409,26.4279998838902,0,-2.91,7,28.62
2022-06-03 10:47:45.525,26.544002071023,0.28,-1.03,9,35.9
2022-06-03 10:47:45.638,26.6570068895817,0.32,-1.99,10,48.65
2022-06-03 10:47:45.753,26.7720032483339,0.19,-3.21,8,51.66
2022-06-03 10:47:45.868,26.8869996070862,0.27,-1.94,5,32.4
2022-06-03 10:47:45.983,27.0020060241222,0.15,-3.33,2,29.55
2022-06-03 10:47:46.098,27.1170023828745,-0.01,-4.04,0,20.99
2022-06-03 10:47:46.212,27.23100297153,0.09,-2.57,0,7.14
2022-06-03 10:47:46.327,27.3459993302822,0.11,-2.84,1,13.29
2022-06-03 10:47:46.442,27.4610057473183,-0.1,-4.62,5,27.09
2022-06-03 10:47:46.552,27.571003139019,-0.0399999999999999,-3.24,7,37.07
2022-06-03 10:47:46.667,27.6859994977713,-0.07,-3.69,10,46.67
2022-06-03 10:47:46.782,27.8010059148073,0.24,-1.09,9,41.48
2022-06-03 10:47:46.896,27.9150065034628,-0.22,-6.18,6,62.41
2022-06-03 10:47:47.011,28.030002862215,-0.09,-3.11,4,25.65
2022-06-03 10:47:47.125,28.1440034508705,-0.15,-4.16,1,29.7
2022-06-03 10:47:47.240,28.2589998096228,-0.28,-4.95,0,20.65
2022-06-03 10:47:47.355,28.3740062266588,-0.23,-3.96,0,14.13
2022-06-03 10:47:47.469,28.4880068153143,-0.17,-3.73,4,15.94
2022-06-03 10:47:47.584,28.6030031740665,-0.0599999999999999,-3.04,7,33.18
2022-06-03 10:47:47.700,28.7190053611994,0.25,-1.03,8,34.4
2022-06-03 10:47:47.814,28.8330059498549,0.24,-2.48,9,46.11
2022-06-03 10:47:47.928,28.9470065385103,0.18,-2.96,8,46.09
2022-06-03 10:47:48.043,29.0620028972626,0.15,-2.92,4,38.96
2022-06-03 10:47:48.158,29.1769992560148,0.01,-3.87,2,26.03
2022-06-03 10:47:48.268,29.2870067059994,-0.14,-4.49,1,23.89
2022-06-03 10:47:48.383,29.4020030647516,-0.15,-3.98,2,18.72
2022-06-03 10:47:48.497,29.5160036534071,0.0600000000000001,-2.15,1,16.97
2022-06-03 10:47:48.613,29.6320058405399,0.17,-2.27,5,14.09
2022-06-03 10:47:48.727,29.7460064291954,0.24,-2.07,7,34.55
2022-06-03 10:47:48.842,29.8610027879477,0.37,-1.43,8,37.02
2022-06-03 10:47:48.956,29.9750033766031,0.31,-2.47,8,46.19
2022-06-03 10:47:49.072,30.091005563736,0.27,-2.48,7,38.68
2022-06-03 10:47:49.186,30.2050061523914,0.23,-2.7,3,35.74
2022-06-03 10:47:49.301,30.3200025111437,0.11,-3.44,2,21.34
2022-06-03 10:47:49.415,30.4340030997992,0.0800000000000001,-3.13,1,19.65
